Theta_e
312 313 313 313 313 312 312 313 312 311 309 309 306 308 307 304 303 314 316 319 312 310 304 307 305 300 301 303 305 300 300 301 301 302 302 301 300 300 299 301 299 301 301 300 300 301 300 299 300 300 300 301 303 303 302 304 304 307 304 304 308 316 308 302 300 305 305 307 307 308 308 309 308 307 307 308 305 306 304 303 307 304 303 301 301 298 301
313 313 313 313 312 312 312 312 312 311 310 307 307 307 306 304 305 311 318 319 312 307 300 301 304 305 309 308 308 306 307 304 306 304 302 303 301 299 301 303 302 302 302 301 301 302 299 301 300 302 301 302 302 300 302 305 306 306 305 306 312 302 303 308 299 300 302 304 307 306 308 309 308 308 309 309 308 308 308 309 309 303 304 303 300 294 299
313 313 313 313 313 312 312 312 312 312 311 310 307 307 304 304 306 305 312 321 313 304 303 304 304 305 305 305 306 307 308 305 307 308 307 305 304 302 301 303 303 302 302 302 303 304 301 300 302 302 300 303 304 302 303 303 306 305 312 322 311 309 307 306 296 293 291 292 294 296 301 305 305 309 308 309 309 308 308 302 305 297 305 303 300 299 306
313 313 313 313 313 313 312 312 312 312 311 309 309 303 306 306 303 308 313 315 313 311 311 308 307 305 305 305 306 306 305 309 309 306 306 306 305 304 304 304 303 302 302 302 302 303 303 301 302 302 302 303 303 302 302 305 308 319 324 315 314 308 305 310 312 301 298 301 310 305 307 303 301 302 307 307 308 308 310 310 304 299 304 302 306 307 307
313 313 313 313 313 313 312 311 312 312 311 310 307 307 307 307 305 306 303 310 310 307 308 307 307 303 306 304 305 305 306 306 308 305 306 305 306 306 303 304 304 303 300 301 301 301 301 303 302 303 303 302 304 303 308 316 322 325 315 316 311 310 304 303 308 309 307 307 306 302 308 304 302 302 305 308 307 308 307 303 301 312 304 298 308 313 305
312 312 313 314 314 313 312 311 311 311 310 309 308 308 309 301 304 309 309 302 302 306 306 307 305 306 305 304 306 305 305 306 304 308 308 308 308 304 303 305 305 304 303 301 300 303 304 304 301 303 300 303 304 305 306 311 315 315 308 308 312 308 302 302 301 301 300 301 301 304 303 302 302 303 303 305 308 307 306 307 308 308 302 300 308 312 308
312 312 312 314 314 313 313 312 311 310 308 307 309 307 308 306 308 307 312 303 306 306 307 306 306 304 304 305 306 305 305 304 305 305 306 307 307 306 303 305 306 306 304 302 303 305 300 300 305 304 303 303 306 303 304 306 307 307 306 307 310 310 302 302 301 301 300 300 301 301 301 301 300 301 302 302 306 307 307 308 308 308 308 311 309 313 311
312 312 312 313 315 314 313 312 312 310 307 309 311 308 305 305 305 302 309 308 305 306 306 305 304 302 306 306 306 305 305 304 305 307 304 304 306 308 305 305 307 307 305 306 305 304 304 303 302 305 304 302 306 307 309 306 310 308 304 306 308 307 302 304 301 301 299 300 301 299 300 301 301 301 301 301 301 304 306 307 307 308 307 307 307 310 311
311 311 312 313 314 314 314 313 312 309 308 307 307 305 306 306 309 309 304 300 301 308 306 303 304 301 304 305 306 305 305 304 305 306 309 306 305 306 304 306 307 307 306 307 305 306 307 307 307 308 305 302 308 304 306 309 308 305 304 306 306 309 305 302 305 299 298 299 299 300 300 300 300 302 303 303 302 302 304 304 309 307 306 311 309 306 308
311 311 312 312 313 314 314 313 313 309 308 307 305 302 307 307 309 310 307 299 306 301 303 304 300 298 303 306 306 304 305 305 306 306 308 307 308 308 307 307 306 307 308 307 307 309 310 310 311 311 310 309 307 306 306 306 310 306 306 310 306 309 307 301 300 298 298 299 301 300 300 300 298 299 302 306 306 308 307 308 311 310 313 308 305 306 316
312 311 312 312 313 314 315 314 314 311 311 306 303 302 304 303 302 307 307 298 300 302 303 301 300 302 306 305 304 306 305 305 307 303 306 309 309 310 309 308 307 306 306 308 312 313 312 313 313 312 310 309 307 307 305 305 307 308 308 306 308 310 307 303 306 298 299 299 300 300 299 292 295 308 307 308 305 308 306 307 309 313 313 311 315 315 316
311 311 312 313 314 314 315 315 314 313 311 311 309 304 306 306 305 306 304 297 298 300 301 299 301 302 304 304 303 303 303 304 305 307 305 308 310 311 310 309 308 307 311 315 314 314 312 311 310 310 307 307 307 306 305 305 305 316 308 309 307 309 308 304 304 300 298 299 300 296 291 294 307 307 312 311 308 309 308 312 315 314 316 317 316 319 321
311 311 312 313 314 315 315 315 314 313 312 313 310 304 307 308 305 305 306 302 298 301 298 299 303 304 305 303 302 302 304 306 307 308 308 307 309 310 310 309 309 310 315 312 313 313 310 307 310 309 308 309 306 306 306 305 304 306 306 310 310 307 306 303 301 302 299 298 298 290 293 305 304 309 315 315 311 311 311 311 316 319 316 319 318 323 323
311 312 313 314 315 314 314 315 315 315 313 312 310 308 308 308 303 304 306 301 300 301 299 300 300 300 301 301 301 302 305 306 309 309 307 310 308 309 311 312 313 315 314 313 311 312 308 310 306 307 305 307 306 305 304 303 304 304 305 307 309 310 309 306 299 301 297 298 297 297 304 300 307 307 311 311 313 311 310 302 310 318 321 321 321 323 322
312 313 314 315 315 314 314 314 315 314 313 311 313 310 309 309 306 305 307 303 298 302 300 295 302 303 303 303 303 302 302 305 305 306 310 310 308 310 311 314 315 314 314 311 311 313 306 307 302 300 302 300 296 300 305 302 304 305 305 305 309 314 306 310 303 299 300 297 295 296 296 293 301 314 314 318 314 317 314 310 306 317 321 325 325 325 321
313 314 314 315 314 314 314 314 314 314 315 311 313 310 310 310 309 307 305 304 299 293 297 301 305 304 302 302 302 300 300 304 306 306 307 310 309 312 314 315 314 315 314 313 312 311 308 303 299 299 297 299 301 299 299 303 301 303 305 305 306 305 313 312 304 300 297 298 295 294 293 298 309 310 312 314 314 314 315 307 302 316 322 324 326 326 325
312 313 314 315 315 314 314 314 314 314 315 312 311 310 308 312 308 306 305 305 303 297 304 305 307 305 302 301 304 304 306 304 305 303 303 305 308 309 311 313 315 316 314 311 313 307 304 304 304 302 303 303 299 299 302 301 300 301 303 305 305 306 305 305 302 300 300 299 295 294 301 299 307 311 311 313 315 313 310 297 299 315 321 324 326 328 327
312 313 314 315 315 314 314 314 314 314 314 313 311 308 309 312 312 309 305 304 301 300 305 307 304 301 300 303 302 306 307 306 306 307 304 307 306 306 306 309 309 313 315 312 311 309 307 303 299 300 299 305 305 303 296 300 299 300 300 301 300 301 302 303 299 299 300 299 298 298 300 308 309 310 314 314 314 311 300 294 303 318 322 327 327 329 331
311 312 313 314 314 314 314 313 313 313 314 312 312 310 309 312 312 309 306 305 303 298 305 308 309 306 308 308 306 307 306 305 305 301 303 304 305 306 306 307 310 307 311 308 308 306 303 306 306 305 301 302 304 300 304 300 300 303 303 300 300 300 303 299 300 299 299 299 297 297 303 310 311 313 314 317 310 300 299 312 319 323 325 329 329 329 330
311 312 313 313 313 314 314 313 313 313 313 312 311 308 311 312 313 310 305 302 305 302 305 305 307 304 309 305 304 303 304 303 304 302 301 301 308 307 307 304 309 308 309 310 304 306 303 302 305 305 303 304 305 306 302 305 305 304 303 305 301 302 299 298 298 301 298 299 296 294 290 304 313 314 313 312 307 308 320 318 315 325 328 328 330 330 328
311 312 312 312 312 313 314 313 313 313 313 314 311 309 307 312 311 312 310 306 303 299 301 308 309 308 308 306 307 307 305 301 303 301 304 304 307 304 297 301 303 304 305 308 302 303 306 303 304 304 308 307 307 304 303 304 306 310 306 305 303 308 299 300 301 304 298 296 295 294 305 314 317 315 309 312 316 321 321 322 318 324 329 330 330 330 330
311 312 311 312 312 313 314 314 313 312 313 314 311 309 306 310 311 313 312 310 303 301 304 308 310 308 309 311 311 311 310 309 309 308 304 303 308 305 305 305 305 306 309 312 308 308 309 308 309 305 303 304 307 304 307 303 299 306 309 306 299 308 304 306 299 307 302 301 304 312 311 313 318 319 317 323 323 320 323 327 324 324 325 332 330 330 329
311 312 312 312 313 314 314 314 313 313 313 314 311 309 305 308 309 312 310 303 306 307 309 308 310 310 311 311 313 313 313 314 313 311 310 304 302 305 303 304 305 310 311 314 308 307 310 310 306 309 306 307 305 304 304 304 304 305 305 309 304 312 311 313 308 307 311 311 312 313 315 314 315 315 319 319 321 318 322 325 324 327 328 329 331 333 330
311 311 312 313 313 314 314 314 314 314 314 314 313 309 308 309 309 309 307 306 303 300 305 308 305 303 304 304 311 314 314 313 313 313 314 310 300 302 307 309 309 309 311 312 314 308 309 311 310 310 305 310 308 303 301 300 303 307 307 305 307 310 312 309 306 310 302 299 314 315 317 318 319 317 320 324 324 323 322 327 329 328 328 329 330 332 332
311 311 312 314 314 314 314 314 314 314 315 314 314 314 312 309 310 308 303 299 301 300 295 300 302 307 308 310 312 311 312 315 317 314 313 312 308 303 305 310 312 309 308 311 314 310 312 305 308 308 304 311 310 303 308 304 302 309 304 307 306 310 312 307 308 307 306 307 315 318 319 321 322 321 319 321 323 323 323 328 329 331 331 331 330 332 331
311 312 313 314 314 314 313 314 314 314 314 314 314 310 307 308 310 311 307 305 303 302 295 294 300 310 310 308 306 309 313 314 314 314 314 313 312 311 309 312 312 315 312 312 312 308 307 308 309 309 306 308 312 306 307 308 308 310 306 306 312 312 311 311 310 307 310 315 317 318 320 320 322 323 323 324 324 324 325 327 329 329 329 329 330 333 332
311 312 313 314 313 314 314 314 314 314 314 314 313 312 310 310 311 309 305 304 300 297 298 295 301 305 307 304 308 310 310 310 310 313 313 314 313 313 312 310 309 311 310 310 312 309 311 309 307 304 308 308 313 310 311 309 308 307 306 309 311 307 305 310 309 306 305 306 312 318 308 309 316 320 323 324 323 326 327 328 329 330 330 331 330 329 331
311 312 313 313 313 313 313 314 314 314 313 313 312 312 312 310 310 311 311 308 302 296 297 297 298 303 308 304 308 309 310 311 310 310 311 313 313 313 312 311 311 309 309 307 307 307 306 303 304 311 311 313 308 307 312 313 310 308 308 309 313 308 313 310 306 306 307 313 315 322 321 320 321 322 323 326 326 328 328 329 330 331 333 333 332 329 328
311 311 312 312 312 313 313 313 312 313 312 310 310 308 307 310 311 311 310 311 308 301 300 300 303 302 296 301 308 308 310 311 310 310 310 311 312 312 311 311 310 310 309 308 307 308 307 307 312 307 306 315 309 305 307 303 304 303 307 312 312 314 316 313 314 312 313 314 315 320 319 316 321 322 325 327 328 329 330 331 332 332 332 333 335 335 332
310 311 311 312 312 312 312 312 312 312 311 310 307 303 300 304 308 308 310 310 308 306 298 296 293 298 308 306 306 309 309 311 310 310 309 309 309 310 311 311 311 311 310 308 308 305 308 307 309 312 314 316 307 309 303 304 302 305 313 313 318 316 315 317 318 312 311 318 317 317 318 321 323 324 326 329 328 330 329 329 330 331 331 332 333 333 335
310 311 311 311 312 312 312 311 311 311 310 308 304 297 295 296 303 310 309 310 310 306 302 301 296 303 302 308 308 307 309 311 310 309 309 309 310 310 311 312 311 311 307 308 307 308 310 306 306 309 314 314 312 306 303 303 301 304 310 313 316 317 319 319 320 320 319 320 321 321 320 322 325 325 326 329 328 330 332 330 331 332 332 332 334 334 333
310 310 311 311 311 312 312 312 311 311 310 306 301 299 302 302 306 310 311 311 311 305 300 296 297 299 299 303 307 311 309 310 311 311 310 310 308 310 310 310 309 311 310 308 309 309 307 312 308 309 309 320 312 306 306 303 300 302 309 310 315 316 320 317 318 320 321 322 320 319 318 320 324 322 322 329 329 331 333 332 332 332 330 331 329 330 332
310 310 310 311 311 311 312 312 311 311 309 310 311 311 310 310 310 310 310 310 307 303 305 300 295 299 297 301 307 308 309 309 308 309 308 312 310 310 308 309 310 309 313 309 305 304 311 310 311 306 310 317 310 308 305 301 303 309 309 313 315 319 318 318 320 321 322 323 322 316 315 320 321 325 324 327 328 328 328 327 327 329 329 329 328 328 328
310 310 310 310 311 311 311 311 312 311 310 307 303 304 309 310 310 310 311 309 304 305 305 299 296 296 297 306 301 307 310 306 306 308 304 312 314 309 308 307 309 306 312 306 311 310 310 309 306 309 312 309 313 307 302 305 309 310 311 312 315 317 320 320 321 320 323 324 325 324 325 323 325 326 326 327 326 327 328 327 328 329 328 329 329 329 328
310 310 310 311 311 311 311 311 309 307 303 303 303 307 309 310 310 311 310 306 299 299 299 300 302 296 295 298 298 303 310 305 303 305 304 309 315 307 309 306 306 303 307 313 308 308 307 308 313 306 303 311 306 302 303 306 309 311 313 313 316 318 317 314 316 320 324 326 325 324 325 325 324 324 326 326 325 325 326 327 329 328 326 326 325 325 327
310 311 310 311 310 311 310 309 307 304 301 301 304 312 314 314 311 312 311 310 306 299 299 300 301 297 297 292 294 305 309 303 305 306 308 312 311 315 311 307 301 305 316 308 305 308 305 314 307 300 310 303 302 305 308 311 310 312 314 314 318 317 316 316 316 323 323 323 323 323 322 323 323 324 325 325 325 325 326 325 326 328 326 324 323 323 325
310 310 311 310 310 307 302 303 307 305 304 308 310 314 313 312 311 310 307 307 310 309 300 299 296 297 299 298 301 305 305 298 304 303 308 308 307 312 310 306 302 312 308 306 306 305 310 316 306 302 304 301 305 314 316 317 316 315 316 318 320 321 321 321 321 321 322 321 321 321 321 321 322 323 324 324 324 324 324 324 324 325 324 323 322 322 325
310 310 308 305 303 299 300 303 305 309 312 312 313 310 308 309 302 303 303 300 305 307 302 301 297 300 304 299 295 306 303 300 304 300 303 308 307 307 311 309 310 308 301 303 306 314 312 308 305 302 304 311 316 315 314 317 319 320 320 320 320 321 322 322 322 320 319 318 318 319 320 321 322 323 323 323 323 322 324 326 325 326 327 325 324 325 324
308 306 304 303 300 298 301 306 314 313 313 313 312 306 303 306 302 298 299 302 304 298 303 301 298 302 300 298 300 307 303 300 298 301 298 303 306 303 308 302 309 307 299 301 305 314 304 305 306 306 303 310 311 314 317 317 317 317 318 319 319 320 321 320 321 320 319 318 320 324 323 322 322 322 323 324 323 323 323 323 323 323 325 325 325 325 325
305 301 300 301 299 303 312 313 312 310 312 305 307 304 298 304 298 294 303 296 295 300 302 297 302 301 302 299 299 300 308 301 297 297 299 305 311 305 307 307 306 303 298 300 303 311 303 300 304 303 302 308 311 317 315 314 314 318 318 318 318 318 318 318 319 322 322 323 325 326 326 325 326 326 324 324 322 320 320 322 323 324 324 325 325 325 325
304 303 302 300 304 305 308 310 310 310 306 302 302 302 299 293 301 303 300 296 295 297 305 302 303 300 303 303 302 298 307 310 308 305 304 301 312 310 304 300 309 300 296 298 306 308 306 303 302 301 303 310 312 313 314 315 317 318 320 320 319 318 317 318 318 319 320 322 324 324 326 327 325 325 325 325 324 323 322 322 322 323 324 324 323 325 326
305 304 305 307 307 307 307 308 308 305 303 305 297 291 294 297 302 300 300 293 295 300 301 302 299 302 303 303 303 304 305 310 308 308 304 302 309 306 303 303 303 298 296 303 309 308 304 299 300 301 308 313 315 313 313 314 317 317 318 320 321 320 319 318 318 319 320 321 323 324 326 326 325 325 325 325 325 324 323 322 322 323 324 326 326 325 325
309 309 308 304 304 303 305 298 304 302 291 291 291 288 293 290 294 295 297 301 305 302 304 308 308 309 308 309 306 307 307 311 305 306 305 303 311 308 303 298 299 293 300 309 305 303 299 299 299 303 312 314 313 312 314 316 317 318 318 320 322 322 321 319 319 319 320 321 322 324 325 325 325 325 325 326 325 323 323 323 324 324 325 325 325 325 325
309 308 303 303 300 303 304 288 304 298 290 290 289 286 291 290 293 295 294 297 302 303 305 303 305 304 303 309 306 307 307 309 310 309 307 309 306 303 301 295 299 304 307 303 301 297 299 303 304 307 313 313 312 314 315 316 317 317 318 320 322 323 322 320 319 319 319 321 322 323 324 325 325 325 325 325 323 323 322 323 324 325 325 325 323 323 324
302 300 299 296 292 296 293 286 300 293 287 291 294 293 293 291 294 295 296 302 303 301 308 307 308 306 304 311 310 310 309 304 312 304 301 306 302 303 299 297 304 304 300 297 299 300 300 299 308 310 311 311 312 313 315 317 317 316 317 320 322 323 324 322 321 320 321 322 322 322 322 324 324 324 324 324 325 325 323 322 323 323 323 323 322 322 322
298 292 292 289 287 290 290 288 289 288 295 298 295 297 296 297 298 298 303 305 303 304 303 305 308 309 306 309 303 305 310 307 303 304 305 305 299 298 304 307 305 300 297 297 295 294 298 302 306 309 312 311 312 314 316 317 318 318 319 318 319 321 323 324 323 321 322 322 323 323 323 324 323 324 323 324 324 324 324 324 324 324 323 322 320 320 321
298 300 294 291 288 290 297 289 291 296 298 299 301 301 300 301 302 303 304 304 303 306 308 309 308 309 306 307 307 306 308 308 302 306 305 300 298 301 306 302 296 297 294 293 295 297 301 305 309 312 311 312 314 316 317 318 317 317 318 320 321 321 323 324 324 322 322 322 323 323 323 323 323 323 322 321 321 323 324 324 324 325 323 322 321 321 320
290 296 298 287 286 289 289 294 298 299 300 300 301 302 302 303 302 303 306 308 307 309 307 308 305 307 305 310 308 303 304 307 303 303 305 301 304 299 295 297 296 299 299 297 298 302 304 307 309 311 312 314 314 316 317 318 318 318 318 320 321 321 321 322 324 323 323 322 322 322 322 322 322 322 321 321 321 321 322 323 323 324 323 322 321 321 320
299 292 289 289 292 292 293 298 297 295 298 300 301 301 300 300 301 303 306 309 308 308 308 306 307 306 302 303 303 302 301 306 296 295 303 301 297 293 293 292 294 294 301 302 302 305 307 310 312 312 313 314 315 316 317 317 317 318 318 319 320 321 322 323 323 323 323 323 323 322 321 322 322 322 321 321 319 320 322 323 323 323 323 321 320 320 320
293 292 296 293 293 295 297 298 296 294 298 299 299 299 300 300 300 302 306 306 307 308 309 309 309 303 301 302 296 299 299 303 301 297 299 297 298 298 296 293 296 296 300 305 308 309 312 315 315 315 317 316 317 317 317 317 318 319 319 320 320 322 322 323 323 323 323 323 323 322 322 322 322 322 321 322 322 321 321 321 322 322 322 322 321 320 320
298 295 293 300 294 294 296 292 293 293 294 296 297 297 298 298 300 301 307 305 307 308 307 303 303 302 297 295 293 291 296 303 300 299 298 298 301 299 296 295 299 302 304 308 309 311 314 316 316 316 317 318 319 320 320 320 319 319 319 319 321 321 323 324 323 322 322 323 323 321 321 322 324 325 326 325 321 320 320 320 319 320 321 322 322 321 321
290 289 292 297 299 299 298 297 297 296 296 297 297 299 300 298 301 303 307 306 306 304 300 304 303 296 291 292 299 301 304 300 298 299 297 300 303 299 300 301 304 306 307 309 311 314 317 317 317 316 316 316 318 320 320 319 319 320 320 320 321 321 322 323 324 323 323 322 323 323 323 324 324 324 324 322 321 319 318 318 319 321 321 321 322 323 323
Wind_Speed
16 15 16 17 17 17 18 20 20 21 23 9 8 6 3 4 3 5 4 5 2 3 3 1 0 1 0 2 3 3 3 3 1 2 1 2 1 1 2 4 3 5 5 1 3 4 3 5 4 2 4 4 8 0 2 7 3 3 3 3 2 2 1 4 2 0 2 1 1 4 2 4 3 4 2 4 4 1 1 0 3 3 4 3 2 3 1
14 14 15 16 16 16 17 19 19 18 18 9 8 2 2 2 3 4 1 4 2 1 2 1 1 1 2 1 3 4 3 1 3 2 1 2 1 2 2 2 6 3 1 1 3 3 3 4 2 3 3 2 3 2 5 5 6 4 7 5 7 4 1 2 4 2 1 1 2 2 2 1 1 1 3 2 4 5 5 5 1 2 5 1 3 3 0
13 14 14 15 15 15 16 17 18 17 15 12 4 3 2 3 3 3 6 4 2 0 2 0 0 1 3 3 2 4 1 3 4 5 4 1 3 1 4 3 3 3 3 3 2 3 4 3 3 3 3 2 2 2 5 1 3 1 2 3 8 0 4 5 6 7 6 6 4 5 5 6 2 2 3 2 6 10 5 3 3 3 2 2 3 3 1
13 13 14 15 15 15 15 16 18 17 15 12 3 1 2 4 2 2 2 4 3 4 1 2 1 0 2 1 1 2 3 1 1 3 4 3 3 5 7 4 2 4 1 4 5 6 2 5 1 2 2 2 1 0 2 0 2 2 8 7 4 3 1 1 3 5 6 4 2 2 2 4 5 4 4 6 2 3 3 3 3 5 4 6 6 3 3
13 13 14 14 14 13 14 15 16 17 16 11 2 1 1 1 1 3 3 4 4 2 2 3 3 1 2 1 2 1 2 4 4 3 1 1 3 3 3 1 2 1 2 4 3 1 2 1 1 3 2 0 1 1 2 3 5 11 7 2 4 3 3 3 3 3 1 1 1 2 3 5 3 7 7 5 6 6 6 5 3 6 6 5 4 4 4
13 15 15 13 13 12 13 14 16 17 17 8 1 1 0 1 1 1 1 1 1 2 1 6 3 2 2 2 1 2 2 3 3 3 1 5 2 4 2 2 3 1 4 2 3 1 1 0 4 0 2 1 1 4 2 2 1 1 3 2 2 4 5 3 3 2 0 1 1 1 0 1 3 3 7 7 7 7 7 8 4 8 6 5 2 6 6
13 14 15 14 13 12 13 14 16 16 17 4 1 2 1 1 1 0 2 2 1 3 5 5 2 5 2 2 2 2 2 1 1 1 5 5 2 5 1 3 7 5 2 5 2 0 4 4 1 2 0 2 3 3 2 2 1 3 3 1 1 3 1 3 1 3 2 3 1 1 3 2 2 3 3 4 9 9 10 4 5 11 4 1 3 6 9
12 13 14 14 13 12 12 13 15 16 18 3 1 3 2 1 1 1 1 1 3 3 2 1 2 3 1 2 2 2 2 2 3 2 3 2 3 2 2 9 11 8 1 4 1 1 3 2 1 2 2 1 2 2 2 4 2 1 4 2 1 2 3 5 2 3 2 1 1 1 1 2 6 2 1 3 4 5 5 3 3 3 2 3 1 4 6
11 12 13 14 12 12 11 12 13 14 15 3 3 2 3 2 2 1 1 2 1 1 2 2 1 2 2 3 2 1 2 1 2 5 4 4 2 4 6 8 10 1 2 2 4 2 5 5 7 6 2 2 1 2 1 2 6 3 3 1 1 1 2 0 1 4 4 1 2 3 2 1 1 2 4 4 5 5 5 6 7 7 8 6 5 4 7
11 11 12 13 12 11 11 10 11 11 11 3 2 1 4 2 1 2 1 2 1 1 0 1 1 4 1 1 1 1 1 2 4 4 3 4 5 4 4 6 4 4 3 3 5 9 8 10 10 7 8 7 7 5 5 3 3 5 5 0 4 3 6 5 4 5 4 3 1 4 4 3 5 8 8 8 4 1 1 2 3 8 4 7 8 8 2
9 10 11 12 12 11 11 9 9 8 7 6 4 2 3 3 1 1 2 2 1 0 0 1 3 2 1 2 3 2 2 1 3 3 1 3 2 2 5 7 4 4 3 4 10 9 11 11 10 5 6 7 7 4 4 6 5 5 5 3 2 4 7 4 2 5 4 3 1 1 5 7 6 2 3 3 5 7 5 4 5 7 7 3 3 1 4
9 10 10 11 12 12 10 8 7 5 3 3 3 2 2 2 1 1 1 3 1 1 2 3 3 2 2 1 2 3 5 5 5 4 6 5 10 11 7 3 2 3 3 10 10 10 5 2 3 3 3 4 6 5 4 6 4 1 3 4 5 6 4 4 1 3 4 3 3 6 9 8 3 1 1 3 3 3 5 4 3 6 5 2 4 2 3
8 8 10 11 12 10 8 6 5 5 2 1 2 1 2 2 2 1 2 2 3 1 3 2 1 4 4 4 6 6 7 8 6 8 9 9 8 5 2 3 3 4 11 14 12 8 1 2 2 1 3 2 4 5 6 3 3 1 1 3 7 6 6 4 2 2 4 3 6 6 7 1 3 1 3 3 3 3 4 4 6 7 10 8 5 2 5
8 9 10 11 11 9 9 6 4 5 2 2 2 2 2 2 1 2 2 1 3 0 2 5 6 7 8 8 7 8 7 8 6 3 5 6 8 8 7 3 3 8 9 8 5 2 1 1 2 1 2 3 2 3 3 3 6 1 3 2 1 9 4 4 4 2 5 5 9 5 5 4 4 2 5 7 5 8 6 5 3 8 8 8 4 6 6
9 10 10 10 10 9 8 6 4 4 3 5 3 1 2 3 3 2 2 1 2 1 2 4 1 1 1 1 1 3 4 4 5 3 2 3 5 5 5 7 9 8 6 4 3 2 1 1 2 2 1 3 6 4 2 0 2 5 3 1 2 7 8 3 6 4 1 3 5 3 4 7 6 5 1 4 1 3 2 1 2 3 4 6 6 8 9
8 9 9 10 10 9 8 6 5 4 3 5 3 3 3 3 4 3 3 2 1 3 3 4 3 2 2 2 1 3 3 3 2 4 5 2 4 5 4 5 8 6 2 1 1 0 1 2 1 2 2 1 2 1 2 4 0 3 5 4 7 4 3 5 6 4 3 3 6 5 7 6 3 6 6 5 2 4 4 3 5 5 10 9 8 7 9
8 9 9 9 9 8 8 7 4 3 3 6 3 2 3 3 3 3 3 3 3 4 3 3 1 2 1 2 2 2 2 2 2 3 3 2 4 6 9 8 4 1 4 2 1 2 3 1 1 1 0 1 2 1 2 1 3 1 4 5 5 4 2 4 4 4 5 6 5 7 4 3 0 3 4 4 4 5 4 5 4 5 10 11 9 9 10
7 8 9 9 9 8 7 6 5 3 3 6 4 3 3 2 3 3 3 3 4 5 4 4 6 5 4 2 2 1 1 1 2 1 3 3 3 4 6 7 5 2 2 2 0 3 0 3 6 5 4 1 1 2 1 1 2 2 2 2 2 3 2 3 8 8 5 8 3 2 3 4 3 3 3 3 5 5 7 5 2 5 8 9 8 8 8
7 7 9 10 8 8 7 6 4 4 0 5 3 3 4 3 3 4 4 4 4 5 1 2 2 3 1 1 1 2 2 2 2 3 3 3 1 5 8 5 2 2 4 0 1 3 4 1 3 1 4 3 3 2 4 2 1 1 2 1 2 0 2 1 2 5 7 6 7 5 2 1 4 2 4 4 6 6 9 2 2 6 8 7 7 8 7
7 8 8 8 9 8 8 6 5 4 4 6 4 4 3 3 4 6 5 5 4 8 5 6 4 5 2 2 2 2 2 3 2 2 2 3 4 9 1 2 2 3 2 0 3 1 3 6 3 1 2 3 2 3 1 1 2 1 1 1 2 2 5 3 5 3 3 2 5 2 4 3 8 10 3 2 5 4 3 3 2 1 8 10 7 6 7
8 8 8 8 9 8 8 7 5 5 5 7 7 4 2 2 3 5 4 3 4 7 7 2 5 9 7 8 9 9 7 8 2 3 3 3 2 2 1 1 3 3 1 2 3 2 2 2 3 3 1 1 2 1 2 1 1 3 0 1 2 2 3 1 3 4 4 6 7 3 2 4 12 13 9 9 5 1 5 5 5 2 5 7 6 4 5
7 9 9 9 9 9 8 6 5 5 5 5 7 3 3 2 1 2 2 3 5 7 5 5 5 8 9 8 8 8 9 11 11 7 5 5 1 3 4 4 4 2 2 2 2 2 2 0 1 2 3 3 1 3 3 4 6 2 2 2 3 3 2 1 2 3 4 2 1 3 3 2 8 1 3 1 3 1 4 2 7 8 4 2 5 6 5
8 9 9 9 9 10 9 7 5 4 4 4 7 4 4 2 1 1 1 3 4 7 6 8 9 10 9 12 13 13 13 11 11 9 6 4 5 3 5 4 4 3 3 2 3 3 2 1 1 1 1 3 4 3 2 4 3 2 4 3 1 1 2 1 3 2 3 4 6 3 2 1 6 6 2 3 1 1 3 4 6 3 5 7 5 6 7
7 8 9 10 11 11 8 6 5 4 5 5 8 5 4 3 2 2 2 4 4 7 7 7 5 6 4 4 2 7 10 11 13 13 9 8 7 4 2 6 3 2 1 3 1 3 3 2 1 0 2 1 2 5 5 5 5 1 1 2 1 1 2 2 3 2 1 1 2 2 4 3 3 7 3 1 2 2 2 2 3 6 6 5 3 5 7
7 8 9 10 10 8 5 4 5 4 4 6 7 6 2 2 2 2 2 4 3 4 5 4 7 10 6 3 5 6 8 8 8 11 12 13 14 9 2 4 2 1 4 6 2 3 2 3 1 2 3 1 2 3 3 3 2 2 4 1 1 2 2 3 1 1 3 3 4 4 4 4 5 3 4 4 3 3 1 2 2 5 5 5 5 6 6
7 8 10 9 6 4 3 4 5 5 5 6 6 4 3 3 2 2 0 3 3 3 5 7 3 4 2 6 6 4 1 4 8 11 13 15 16 15 11 6 5 2 5 5 4 4 2 1 1 0 2 1 1 1 1 1 3 2 3 3 1 2 3 3 2 3 3 5 6 5 5 5 4 4 5 2 1 5 4 3 5 7 8 7 5 2 6
8 8 8 7 5 5 5 6 7 6 5 5 5 5 5 4 4 5 4 2 2 4 6 7 6 6 5 10 10 6 9 9 8 9 11 14 15 13 11 9 8 6 5 6 3 2 1 0 1 1 1 1 0 1 1 2 2 2 3 2 3 2 5 3 3 5 5 4 2 2 3 3 3 5 5 4 3 4 5 5 6 7 9 7 7 5 3
8 8 8 7 5 5 5 3 3 3 2 3 3 4 5 6 6 6 6 4 6 4 4 5 8 10 11 13 5 3 4 6 8 10 10 12 14 12 11 10 7 6 4 3 3 3 2 3 2 1 1 1 2 2 2 1 0 3 5 4 3 3 3 4 6 6 3 2 4 3 2 3 4 3 4 4 6 7 8 7 8 6 6 8 9 7 4
8 8 8 7 5 4 3 1 1 3 4 2 2 4 5 7 7 7 8 5 5 3 5 8 10 7 5 5 7 6 5 6 8 9 10 11 12 11 11 10 8 6 4 4 3 3 2 2 1 2 1 1 2 2 1 4 5 7 6 3 4 2 3 4 4 5 6 4 2 1 3 6 2 4 1 5 5 6 6 5 5 7 7 6 6 6 8
8 8 8 8 6 5 3 3 2 2 4 0 1 2 2 2 2 4 6 7 7 4 4 4 5 4 4 5 6 3 3 4 7 9 10 9 10 10 9 9 7 6 4 3 2 4 2 3 2 1 1 1 3 1 4 2 5 6 0 3 4 4 4 1 2 3 6 4 3 4 6 6 3 2 1 2 4 3 5 7 7 7 6 5 6 4 3
8 8 8 8 7 6 5 3 3 1 3 0 1 2 2 2 3 2 4 6 6 4 3 3 7 7 7 3 4 6 5 4 6 7 10 10 9 9 6 5 4 6 5 5 3 4 1 3 3 2 2 3 3 3 4 4 7 4 5 4 4 4 5 4 0 4 7 7 5 2 3 3 2 1 3 4 4 3 3 4 5 5 7 6 4 5 4
8 7 8 8 8 6 6 5 4 3 3 3 3 2 2 2 1 3 4 3 5 4 3 4 5 4 5 4 3 3 5 6 4 4 4 6 6 6 5 7 5 8 6 4 3 1 4 1 3 3 4 4 4 2 3 6 9 6 3 3 2 3 1 2 3 4 5 5 5 7 5 5 5 4 1 5 5 3 6 7 6 7 7 5 4 3 3
8 8 8 8 8 8 6 5 5 4 5 5 7 11 12 9 8 6 4 1 1 3 3 3 4 4 4 3 5 3 3 2 3 4 4 5 4 5 5 6 4 4 6 4 3 4 1 2 2 5 3 2 3 2 5 10 8 1 2 5 5 4 5 5 4 3 4 5 7 5 7 3 3 1 3 3 5 6 8 8 7 6 7 7 6 5 4
9 9 8 8 8 8 7 6 4 4 4 3 5 4 3 9 11 15 5 2 2 3 2 2 3 4 6 3 4 2 3 2 1 2 3 3 3 5 4 5 5 5 5 7 1 2 1 1 5 2 2 3 1 2 8 5 2 5 7 9 8 7 4 4 4 5 5 6 7 6 3 3 2 2 4 5 5 5 5 6 8 9 7 6 5 4 5
11 10 9 9 9 8 9 7 4 3 4 4 5 5 5 6 6 9 11 5 3 2 3 3 3 4 5 3 2 1 4 3 1 1 1 2 2 3 4 4 3 5 3 1 2 3 3 4 2 3 5 3 2 6 6 3 5 8 8 9 8 6 5 7 7 5 4 3 4 4 2 3 3 3 5 5 5 6 8 7 7 9 7 5 5 5 6
11 9 9 8 9 7 5 3 4 3 3 3 2 4 4 5 7 5 7 3 2 3 3 2 2 3 3 4 3 2 5 1 1 2 1 0 3 2 1 3 5 2 3 3 4 2 4 2 3 7 3 3 7 7 6 7 9 10 9 9 7 6 7 7 7 1 1 1 1 1 1 2 3 3 3 4 5 6 7 8 6 6 7 6 6 6 6
9 8 7 7 4 2 3 2 2 3 2 1 2 5 9 8 6 5 3 2 3 2 3 4 4 4 3 4 4 3 4 3 4 2 1 1 3 0 1 3 4 2 3 3 2 4 2 2 2 3 4 8 7 5 6 6 8 9 8 8 7 6 6 6 4 2 3 2 2 1 2 3 3 3 5 5 6 7 8 9 9 9 9 9 8 7 8
6 5 3 2 2 2 2 3 2 1 4 7 7 3 3 3 2 3 3 3 3 4 4 3 6 4 2 3 5 1 3 1 1 3 1 1 2 2 1 0 2 2 5 3 2 2 3 3 4 6 8 6 4 4 5 4 6 6 7 6 6 6 6 6 5 5 4 3 2 3 3 4 5 6 6 7 6 7 6 5 5 4 5 6 7 7 8
2 2 2 2 1 2 1 2 2 7 5 2 2 2 3 3 2 2 4 3 2 3 3 4 5 4 5 6 7 2 3 3 4 2 1 1 1 2 1 2 1 1 0 2 2 2 4 2 2 2 8 3 3 2 0 3 5 6 7 7 7 7 6 6 7 9 9 8 6 7 8 6 8 8 7 5 5 4 4 5 5 5 5 6 7 7 8
1 1 1 1 2 2 3 2 5 3 1 2 3 2 2 3 3 1 3 2 2 3 2 5 4 6 8 7 4 3 3 3 2 1 2 1 2 1 1 0 1 2 2 3 1 1 3 3 2 2 6 0 1 2 2 4 5 5 4 6 7 8 8 8 8 8 10 9 8 7 8 8 6 6 8 9 8 7 6 6 5 5 6 6 7 8 10
0 2 1 2 2 3 4 6 4 1 2 2 1 2 1 1 3 1 2 3 3 3 3 2 1 3 5 6 5 5 1 2 1 1 2 1 1 1 2 1 1 1 0 2 1 2 1 2 2 4 2 1 2 3 4 5 5 7 6 6 7 6 7 8 10 10 9 8 6 5 5 7 6 5 7 9 9 8 8 8 8 7 7 8 9 8 8
2 3 4 4 5 5 5 2 1 1 0 1 1 2 2 1 1 2 3 3 2 2 3 4 3 3 2 7 5 3 3 2 2 2 2 1 1 1 3 1 1 1 2 1 1 1 2 4 3 2 1 3 2 2 3 5 6 8 10 9 8 6 6 7 9 9 9 10 8 7 6 7 7 6 6 8 8 8 8 8 8 8 9 8 7 8 9
9 7 4 3 2 2 2 1 1 1 1 1 0 1 0 0 2 2 2 3 1 2 0 3 2 0 1 2 2 4 1 1 2 1 2 0 1 1 2 2 1 1 1 1 2 1 3 4 3 2 2 3 2 3 3 4 6 7 9 8 7 7 6 7 8 8 8 9 9 7 5 6 7 6 7 7 8 8 7 8 10 9 8 8 8 9 9
3 2 2 2 2 1 1 1 2 2 1 0 2 2 2 2 2 1 2 1 1 1 2 2 1 2 1 2 1 1 2 2 0 1 1 0 1 1 1 1 2 2 0 2 2 4 4 3 4 3 2 2 2 2 4 5 5 6 8 9 8 7 6 5 5 6 6 6 6 5 4 6 6 6 8 8 10 11 9 8 8 9 9 10 10 9 9
1 0 1 1 1 1 0 1 1 1 3 3 3 3 3 2 1 2 1 2 1 2 2 1 1 2 2 1 2 2 1 1 1 2 1 1 1 0 2 0 1 1 2 2 2 2 1 4 2 2 2 3 4 4 4 4 4 5 7 8 8 8 6 4 4 5 5 5 6 6 6 6 6 7 7 8 7 8 11 11 10 11 11 11 10 10 9
1 1 0 0 2 1 0 0 0 1 3 3 3 3 2 2 2 3 1 2 2 3 4 3 2 2 2 1 1 1 1 1 1 0 1 1 1 2 1 1 1 2 1 2 3 3 4 2 2 2 2 3 4 4 4 4 4 5 5 7 8 9 8 6 3 3 3 4 4 6 5 5 5 6 6 6 6 6 6 8 10 11 12 11 11 11 10
1 1 1 0 1 1 1 1 2 1 1 1 1 2 3 4 4 5 4 2 4 3 5 3 2 2 1 1 2 2 1 1 2 1 1 1 1 2 1 2 2 3 3 4 4 4 2 2 1 1 2 3 4 3 3 3 4 5 5 5 7 8 8 7 4 2 2 4 5 5 5 6 6 5 6 6 5 5 6 8 9 10 11 12 11 11 11
1 1 1 1 2 1 2 2 1 2 3 3 2 1 2 2 2 2 3 2 4 4 5 2 1 1 1 1 1 1 1 1 1 1 1 1 0 1 0 1 3 2 2 3 2 1 2 3 3 3 2 3 4 4 3 3 4 4 5 6 7 8 8 7 6 3 2 4 4 5 6 7 7 8 8 9 9 7 8 8 10 10 9 11 11 12 11
1 2 1 2 2 2 2 2 3 2 0 1 1 0 2 3 2 3 4 3 5 5 3 2 1 1 1 2 1 1 2 1 2 1 0 2 2 2 2 2 3 3 3 4 3 2 3 4 3 3 4 4 3 3 4 3 3 4 4 5 6 6 6 6 5 4 2 1 3 5 7 7 7 7 7 8 9 9 9 9 9 9 9 10 11 11 11
0 1 1 1 2 3 3 2 2 3 1 1 1 2 3 2 3 2 2 5 5 6 2 2 1 0 1 1 0 1 1 1 1 1 2 3 3 1 1 3 3 2 1 1 2 3 3 2 3 4 4 4 4 4 4 4 3 3 3 4 4 4 5 6 4 2 0 2 5 6 7 8 8 9 11 11 10 11 12 11 8 3 5 8 10 11 11
1 1 2 2 5 2 2 2 1 2 2 2 3 4 4 4 2 3 3 5 6 4 1 1 1 0 0 1 1 0 1 1 2 3 2 2 2 3 3 3 1 1 2 3 3 3 4 3 2 4 4 4 4 4 4 4 4 4 3 4 4 4 4 4 4 3 1 2 5 7 8 8 7 8 7 9 13 13 13 11 13 13 12 10 10 11 11
0 0 2 2 4 5 4 3 4 5 5 5 4 2 1 4 3 4 4 5 4 2 3 2 1 1 1 0 1 2 1 1 1 0 3 3 2 3 2 1 1 2 3 4 5 4 3 3 3 4 4 5 6 6 5 5 5 4 3 3 3 3 3 3 3 3 2 3 5 6 6 6 4 4 6 11 12 11 12 11 11 12 12 11 10 11 11
Wind_Direction
340 335 334 337 340 344 344 346 348 353 356 11 349 310 344 22 301 307 335 350 306 28 69 320 144 133 69 304 239 221 255 255 283 322 310 287 172 315 211 227 201 226 228 205 235 215 234 167 200 187 212 250 203 150 157 134 118 77 89 73 144 170 109 115 1 245 252 258 19 73 119 143 146 73 88 181 184 206 190 294 138 178 137 196 170 238 289
336 333 336 338 340 343 345 345 349 354 15 359 312 325 34 284 298 316 308 344 294 305 197 143 75 298 304 273 292 205 262 266 305 266 276 265 352 224 285 270 213 310 197 193 273 167 231 203 253 227 194 240 84 201 159 196 166 176 186 182 170 196 261 200 119 162 149 162 178 153 109 212 20 130 117 51 98 93 93 99 60 215 186 295 196 249 261
335 337 336 337 340 343 344 344 345 352 360 4 325 354 317 278 231 247 295 334 333 106 34 301 189 80 327 329 13 354 244 213 266 295 285 256 253 263 235 237 59 260 188 239 258 219 247 328 210 339 196 267 75 27 157 291 163 328 81 76 140 37 148 169 182 180 186 191 205 219 209 193 117 93 121 135 144 135 165 168 162 242 120 189 221 244 262
336 337 334 338 341 341 344 343 343 346 354 357 320 300 292 4 356 326 332 9 36 80 1 36 357 55 335 234 18 271 303 276 273 207 258 246 268 247 281 301 234 280 182 241 233 235 176 216 330 221 216 232 41 98 204 102 124 140 124 121 122 101 114 157 162 196 213 210 212 29 48 115 198 164 177 149 130 88 85 93 166 230 149 201 212 265 333
336 337 336 339 339 340 343 343 341 343 347 4 326 264 15 198 355 348 348 330 72 86 35 37 9 25 330 250 312 278 285 302 313 134 258 138 334 276 199 258 299 275 268 242 227 237 235 110 244 228 232 199 286 2 162 95 104 124 105 45 91 112 166 180 158 222 298 118 170 141 281 181 110 154 171 156 162 161 162 201 237 112 139 239 215 192 231
336 337 335 339 339 341 344 343 342 341 342 0 230 314 328 312 87 255 68 311 341 351 114 19 341 309 235 273 273 277 311 15 357 309 196 317 324 332 146 194 109 242 270 317 221 123 179 40 219 27 252 165 130 149 58 133 294 185 105 322 193 149 194 135 197 140 273 203 75 146 300 64 180 145 148 172 165 175 196 225 154 170 228 265 107 165 204
334 334 333 338 340 339 343 345 342 342 338 356 217 289 66 261 21 183 351 254 235 267 327 322 309 306 240 279 278 277 275 320 67 288 315 332 6 14 292 317 337 322 265 198 243 112 186 199 31 247 221 186 146 143 89 67 118 151 144 92 10 142 60 143 202 127 143 178 226 235 207 144 169 194 180 145 175 198 219 204 168 202 228 339 171 183 222
330 332 331 335 341 337 343 343 345 345 336 314 289 48 300 33 294 131 352 261 283 278 287 284 308 285 240 250 208 289 281 305 338 234 215 299 333 22 312 333 329 324 354 208 114 51 5 349 357 114 255 254 280 186 236 137 130 196 168 124 47 245 154 133 177 148 135 62 77 130 213 175 195 197 191 172 199 220 231 227 187 224 279 222 173 202 254
328 329 329 331 338 338 339 342 349 350 341 38 22 84 12 351 332 4 336 287 248 242 293 291 315 280 177 220 174 256 225 299 326 286 221 222 295 350 341 329 318 305 337 92 100 43 314 283 257 276 252 271 46 262 175 264 159 146 137 199 109 297 116 110 131 175 180 115 170 118 131 135 179 247 230 191 185 209 186 204 193 181 210 164 177 226 249
325 325 326 327 334 334 337 341 350 357 343 20 338 51 359 277 248 268 270 232 46 274 148 266 253 245 237 281 212 260 109 311 310 285 201 232 263 287 340 328 306 291 300 26 359 324 292 273 270 266 260 268 279 247 266 265 216 170 161 18 155 146 132 161 164 188 188 108 194 154 147 176 238 231 224 207 200 30 114 261 209 229 170 156 203 229 68
322 323 322 326 328 332 340 338 347 5 4 26 1 27 10 17 6 333 228 284 197 136 256 237 232 342 318 53 318 260 264 277 339 280 295 325 274 148 324 312 309 285 287 344 318 292 271 264 272 265 247 249 251 256 240 231 242 199 150 128 57 138 149 157 162 204 153 109 118 168 180 209 223 79 35 197 192 193 214 224 220 203 201 243 300 46 108
319 320 317 318 321 328 332 335 339 10 18 41 15 28 17 326 276 253 240 228 241 119 231 234 224 256 246 18 339 306 296 297 305 327 283 293 295 309 308 274 235 301 27 322 312 300 259 227 202 195 212 224 240 246 224 213 193 209 210 169 150 149 138 127 197 199 156 121 147 184 204 222 94 37 195 215 199 174 230 244 249 206 194 253 250 202 149
309 312 309 314 320 323 316 336 337 332 146 357 339 352 2 328 291 297 287 247 262 170 212 232 75 264 268 283 286 269 274 291 287 268 263 267 290 295 260 311 285 302 337 323 327 325 142 293 309 223 241 252 162 135 84 37 175 160 177 162 141 153 148 131 100 76 74 164 171 206 216 54 330 355 76 99 160 214 185 234 215 205 202 202 231 141 132
306 307 310 318 323 328 329 331 330 320 178 215 312 323 300 324 286 234 207 238 257 88 268 288 264 262 258 259 263 279 298 284 296 237 252 225 240 271 286 252 304 324 316 309 310 336 257 49 296 275 209 353 27 238 100 79 37 57 207 194 218 150 92 158 135 261 190 187 192 226 6 304 177 166 195 182 171 171 194 248 186 187 195 193 183 133 150
310 309 314 326 330 333 333 333 334 297 175 189 288 253 264 254 235 263 296 251 273 275 184 268 30 354 36 248 192 287 272 302 309 245 262 299 262 247 272 311 319 315 311 289 318 22 74 144 189 209 195 221 219 217 21 118 101 51 349 181 159 159 178 157 182 181 208 160 194 223 228 230 213 208 76 185 352 152 112 221 225 154 183 190 174 163 165
310 321 324 331 329 332 333 339 323 284 215 177 251 275 264 251 234 261 272 246 145 268 231 236 33 349 313 294 273 280 301 304 322 295 286 237 252 294 286 325 316 314 283 88 66 54 37 270 182 195 201 148 50 278 199 350 279 71 48 111 119 37 33 146 207 145 158 184 207 201 213 217 235 178 174 169 170 147 144 204 250 173 178 181 185 166 171
312 316 323 331 329 328 330 333 326 298 170 173 259 260 301 144 180 220 255 240 241 249 126 192 294 315 289 264 184 201 204 269 341 291 277 267 328 315 307 336 304 342 349 264 307 248 226 168 66 301 98 183 197 333 321 54 327 336 90 101 86 112 105 152 162 148 195 180 207 224 191 214 93 237 184 168 158 161 170 220 244 167 173 173 179 175 174
305 313 323 329 330 327 325 328 316 284 209 187 220 245 282 199 231 252 272 258 227 270 250 206 199 225 229 251 277 9 279 248 222 239 261 305 301 324 332 340 340 17 336 254 173 184 173 164 211 209 206 140 355 146 220 68 325 359 356 55 151 158 152 220 204 194 173 194 213 354 257 243 247 203 166 151 176 187 192 214 230 131 152 163 175 177 167
302 314 320 322 327 327 324 323 312 298 200 175 198 264 256 219 212 215 278 262 226 255 180 213 232 234 342 11 259 353 331 349 351 299 305 279 134 311 277 267 284 311 10 313 136 209 198 165 6 288 213 164 229 187 122 184 98 106 192 186 133 57 82 58 11 195 190 191 214 216 324 276 144 80 149 171 156 181 210 179 32 135 147 160 177 167 159
297 309 312 315 319 326 321 315 311 298 277 167 183 263 288 191 197 194 217 250 246 257 273 272 247 237 198 244 216 214 209 235 240 269 256 266 32 331 184 196 154 291 235 170 220 29 228 203 168 111 214 164 147 90 211 149 125 266 11 15 288 169 199 188 194 125 41 132 208 171 221 167 157 126 124 236 225 223 112 110 66 135 147 158 177 171 161
297 304 304 308 309 318 321 310 296 278 267 181 192 243 283 143 202 220 235 268 290 284 284 244 258 257 258 250 243 247 249 250 223 246 262 275 340 318 242 143 15 339 15 353 234 182 224 187 175 197 358 228 148 154 217 116 197 145 272 235 253 132 241 176 198 204 203 182 196 198 233 120 169 158 177 187 217 25 164 145 123 146 154 163 156 165 157
296 305 304 303 308 309 311 303 290 272 264 201 178 196 259 197 181 151 226 240 251 247 282 323 304 284 270 259 253 241 239 245 249 257 274 283 228 253 311 303 282 268 318 308 260 208 179 350 75 205 188 162 65 231 136 167 226 155 137 159 294 144 303 291 291 155 222 238 239 35 355 259 196 4 359 334 133 150 200 150 138 153 181 151 164 160 156
298 304 305 303 304 303 299 293 278 274 278 181 179 220 249 262 247 219 231 247 242 255 265 276 273 268 249 244 235 231 232 231 246 245 230 248 285 213 233 258 258 230 278 339 346 322 351 252 256 10 255 207 190 137 203 235 265 184 181 170 215 144 179 72 235 225 239 251 254 301 278 241 247 245 286 332 161 210 193 152 134 153 141 170 171 155 154
303 307 308 305 302 299 293 276 260 255 258 215 202 214 240 232 268 298 225 224 256 293 274 229 244 258 233 251 219 219 223 229 226 231 223 207 236 263 219 230 258 292 197 32 321 313 323 281 20 267 261 117 172 199 185 210 229 147 123 228 161 239 132 236 277 346 350 232 101 325 341 333 277 243 228 244 274 231 177 144 129 147 153 153 109 147 160
310 312 309 311 309 297 284 261 255 257 231 236 222 223 223 251 218 221 282 245 235 246 288 298 245 253 285 303 291 263 230 218 204 212 212 210 217 227 211 69 184 1 340 341 320 268 237 268 183 197 234 79 261 213 16 240 204 159 223 219 100 258 149 294 292 331 249 292 348 321 304 274 271 257 236 231 191 162 192 2 62 108 119 133 138 142 141
315 315 320 325 322 320 294 268 257 249 230 229 216 206 207 231 174 186 311 285 281 283 284 284 288 86 12 314 257 225 244 214 210 202 205 210 216 227 249 293 289 29 336 320 305 291 280 240 257 89 245 124 273 300 214 331 16 75 247 216 105 44 129 229 257 261 272 285 254 264 293 257 223 208 235 269 174 163 154 139 124 128 129 120 113 110 154
325 324 334 340 335 331 311 288 265 254 235 215 217 230 237 240 185 186 198 244 259 249 224 255 283 293 351 306 276 259 246 235 216 203 204 213 217 223 234 249 272 300 317 304 269 271 236 251 265 253 240 21 248 281 326 189 224 208 228 202 127 162 223 152 203 239 251 260 324 122 244 248 214 207 199 186 194 177 142 137 134 144 136 137 123 97 100
331 329 344 341 330 336 337 326 290 255 215 220 241 255 249 248 220 206 209 206 224 262 316 289 297 300 307 271 263 231 238 206 200 203 204 208 212 216 222 230 235 258 263 282 265 211 224 248 257 56 289 145 227 217 130 46 127 249 246 230 166 194 286 224 231 245 229 22 332 253 303 289 271 259 164 166 177 170 157 164 153 147 135 140 127 121 123
332 331 340 338 321 311 318 20 80 128 139 137 254 260 253 233 242 223 219 201 198 256 289 288 285 278 281 330 323 291 261 213 203 197 198 205 207 208 214 214 216 220 228 259 285 305 269 260 84 232 284 94 239 250 141 238 235 246 252 135 156 173 233 273 338 322 289 286 334 320 240 274 334 344 187 161 182 179 150 127 139 143 143 144 140 144 149
330 329 330 334 321 293 289 309 328 146 152 358 324 286 279 163 164 225 214 203 193 212 250 299 305 273 315 299 286 271 273 219 203 197 197 200 204 209 210 201 209 202 216 239 246 248 249 266 213 237 257 147 249 50 247 234 251 251 202 162 204 158 180 282 290 284 301 340 340 294 264 253 273 250 240 153 175 213 149 150 152 143 137 144 141 127 140
325 326 326 326 325 306 283 276 288 207 150 255 326 268 252 221 88 8 173 184 179 211 240 239 257 307 298 228 273 279 266 223 203 199 203 204 207 209 204 175 195 175 199 212 226 240 315 224 198 206 129 208 204 217 246 227 248 245 243 213 220 211 185 210 9 276 278 289 309 254 238 246 244 217 191 174 157 165 119 114 119 129 138 145 135 142 154
313 316 316 317 321 319 295 272 262 202 185 230 230 260 353 55 19 111 123 129 171 212 241 274 288 259 279 277 245 268 276 264 212 185 183 182 208 197 182 189 200 190 208 201 217 201 222 218 232 205 218 158 190 247 223 243 248 244 353 327 193 248 300 149 230 257 263 278 308 309 277 242 231 224 331 143 136 125 116 115 117 126 121 102 89 85 101
309 313 313 314 315 316 314 296 282 270 254 254 261 270 268 230 188 226 223 262 266 236 254 273 264 302 279 294 313 254 235 216 176 181 195 179 190 153 189 185 190 179 205 233 199 222 165 196 134 230 205 76 212 211 235 242 240 125 309 323 292 196 201 228 245 238 226 209 202 242 284 322 327 328 74 105 117 128 129 129 131 126 125 127 128 124 122
313 316 312 307 304 305 306 301 286 264 255 258 280 250 240 227 215 217 197 184 268 260 263 254 282 283 286 329 283 105 348 315 84 184 190 162 169 174 175 158 175 198 177 209 187 248 146 213 215 215 91 203 189 241 244 234 181 231 241 249 252 265 252 219 217 235 230 220 216 233 267 301 284 113 126 129 127 131 132 131 142 137 136 140 140 139 136
315 310 305 303 299 302 300 296 283 250 271 276 265 258 268 201 175 182 186 179 197 203 199 229 240 298 310 317 300 47 348 292 34 14 262 125 236 181 142 168 124 213 162 165 245 229 221 220 113 202 228 99 181 230 246 241 215 226 235 244 246 261 280 280 268 240 228 208 207 208 186 174 175 187 166 151 141 150 144 144 150 143 144 148 139 154 169
304 301 295 295 298 293 290 247 225 231 228 239 242 29 29 126 147 137 171 194 300 329 303 311 289 267 311 308 324 344 340 323 27 255 223 117 143 48 202 138 182 198 49 190 223 153 223 105 169 241 116 211 226 224 231 212 232 234 230 235 235 219 235 245 266 167 100 108 198 190 181 187 223 192 150 159 154 160 152 142 148 159 146 143 160 166 173
297 291 296 293 284 250 240 234 167 215 226 100 82 75 99 99 89 104 109 267 215 245 279 302 300 271 261 303 297 278 334 338 349 343 102 177 148 77 164 185 198 110 187 201 200 220 207 45 254 249 190 230 238 210 231 221 225 232 233 232 233 231 237 246 233 183 140 111 113 138 179 181 178 173 181 181 174 167 163 164 166 166 164 165 166 175 180
294 289 280 272 244 250 227 201 201 234 264 266 256 213 196 237 156 152 143 216 211 193 215 219 248 269 239 252 258 52 323 294 11 345 76 352 185 123 339 151 105 202 199 217 192 72 118 186 215 248 253 243 279 265 248 237 245 249 258 253 243 238 231 236 186 190 185 162 181 175 180 201 203 197 191 188 180 189 190 161 153 153 144 150 162 165 168
281 276 247 232 252 251 293 74 9 329 301 263 235 210 176 202 170 198 195 205 178 217 201 231 252 231 233 243 262 272 258 328 327 338 16 1 243 130 268 171 127 255 174 269 185 170 229 195 227 234 259 239 270 275 339 264 260 255 256 259 263 264 256 245 210 204 204 215 221 191 190 192 203 204 198 190 182 191 172 155 160 164 157 149 155 165 175
217 243 268 236 224 257 331 336 342 326 221 203 185 252 189 191 207 217 133 186 230 226 188 238 233 231 217 231 277 308 137 197 229 357 354 71 342 304 315 354 76 250 208 236 172 160 245 240 177 246 268 201 226 302 337 327 301 293 289 281 270 261 249 244 238 230 233 232 231 225 214 221 216 194 184 184 176 178 178 177 169 162 160 160 163 169 177
208 278 241 281 328 324 305 317 312 200 223 162 165 225 247 203 212 228 191 223 238 228 207 246 196 243 225 233 226 245 117 253 298 319 279 313 46 209 180 146 22 251 289 239 102 200 211 254 228 237 271 146 252 311 319 316 309 310 306 302 285 267 253 245 242 238 232 237 234 226 215 213 201 197 191 185 179 180 175 171 170 169 164 158 169 174 170
337 299 299 291 276 281 292 227 187 178 206 359 159 243 221 282 128 214 223 236 239 211 204 191 224 237 239 194 204 230 243 236 284 250 275 212 76 317 79 62 357 262 228 69 47 193 224 246 244 248 214 232 246 292 303 311 319 319 320 321 309 285 264 243 239 232 223 227 229 225 210 201 201 186 178 180 182 172 165 162 161 164 168 167 159 154 165
275 261 251 272 271 241 247 336 192 135 139 161 108 304 166 254 222 229 223 227 294 262 28 185 263 234 43 183 204 213 297 100 259 217 252 27 66 59 95 53 65 194 121 90 230 169 231 238 246 226 216 253 308 314 307 302 307 315 313 314 317 310 285 259 243 237 222 218 224 226 209 199 199 186 176 171 167 162 166 165 162 159 161 158 154 161 165
267 221 233 218 277 257 160 197 179 151 201 132 161 222 178 234 188 171 249 214 172 239 192 234 191 226 305 196 297 130 195 184 245 270 204 324 232 142 124 165 225 58 18 222 203 234 259 274 267 290 315 325 309 327 331 330 330 321 322 326 324 328 317 278 247 229 220 216 221 218 205 194 171 161 170 173 172 167 163 158 158 154 154 158 162 164 163
307 76 316 311 265 267 61 317 264 190 211 188 212 240 206 201 95 208 250 46 281 321 331 232 208 226 280 179 223 230 268 220 352 260 188 217 183 128 228 154 73 208 226 231 222 251 257 255 232 240 295 325 344 340 325 316 322 324 314 316 339 348 341 308 256 229 211 196 193 188 195 184 173 172 174 172 174 163 157 158 159 156 162 162 159 159 161
184 192 212 109 279 297 186 261 78 201 229 192 205 214 224 253 279 275 347 13 305 312 305 309 288 252 250 189 291 86 77 117 213 136 162 236 246 191 69 62 250 236 199 233 235 237 244 287 308 326 16 328 315 311 308 305 313 311 323 345 340 341 351 342 319 251 223 195 178 180 176 174 175 160 156 157 153 153 151 150 156 159 160 160 161 160 160
305 7 76 89 287 265 187 225 205 239 12 233 259 247 259 305 303 290 298 312 291 294 290 289 265 273 313 135 180 156 175 188 218 105 270 206 236 88 226 245 216 216 228 234 230 251 257 285 288 314 314 308 301 296 297 309 322 326 331 329 335 341 343 350 342 296 233 201 177 166 152 150 140 134 131 131 135 145 144 148 157 157 161 163 161 159 162
229 250 139 197 230 199 209 215 8 284 237 248 288 292 330 284 292 356 347 268 279 301 301 276 213 204 154 91 276 75 19 302 224 143 315 335 25 327 43 235 227 230 235 260 253 243 309 337 332 330 314 288 285 295 305 319 324 328 329 332 336 340 342 342 348 336 252 204 184 159 147 148 146 151 155 153 148 151 155 161 166 163 160 160 159 161 163
241 163 167 223 230 234 260 323 325 299 336 307 285 57 2 5 19 343 340 331 340 326 317 281 292 248 95 9 48 135 196 144 237 138 199 215 219 203 206 230 209 232 208 225 286 331 326 332 331 301 290 290 285 283 287 288 299 310 323 328 327 325 324 328 327 323 306 227 177 162 154 151 146 144 140 140 147 152 157 162 169 176 172 162 159 158 160
27 311 256 198 249 240 234 274 287 283 308 344 351 6 5 348 340 9 8 338 330 315 283 215 225 335 48 257 205 24 243 212 244 130 203 208 205 162 220 248 208 243 72 148 230 274 293 297 310 299 301 297 293 293 299 308 291 292 302 306 310 312 319 323 318 309 321 167 173 168 161 156 158 155 165 170 159 150 148 146 143 163 182 172 165 163 165
289 229 257 257 246 276 41 258 237 290 331 339 350 335 343 323 320 328 8 328 320 326 221 21 35 13 159 48 46 214 163 127 203 211 233 217 162 207 224 257 265 227 303 329 302 287 290 294 285 294 300 298 293 292 288 294 299 297 298 295 294 295 302 307 295 277 229 184 175 164 173 185 187 180 156 133 144 154 163 166 156 163 182 184 177 171 169
137 226 252 230 243 257 258 280 276 261 269 280 289 284 279 285 316 324 333 317 316 351 32 336 264 66 73 173 263 17 75 212 241 194 231 215 192 226 208 235 341 348 335 316 317 318 306 283 266 270 279 288 295 301 306 305 300 292 286 287 288 285 291 296 289 268 247 195 187 188 184 179 176 163 140 143 153 159 167 171 173 167 166 172 177 177 175